Regional Weather Roundup
Issued by NWS New Orleans/Baton Rouge, LA

Home | Current Version | Previous Version | Text Only | Print | Product List | Glossary On
Versions: 1 2 3 4 5 6 7 8 9 10 11 12 13 14 15 16 17 18 19 20 21 22 23 24 25 26 27 28 29 30 31 32 33 34 35 36 37 38 39 40 41 42 43 44 45 46 47 48 49 50
399
ASUS44 KLIX 020905
RWRLIX
NEW ORLEANS REGIONAL WEATHER ROUNDUP
NATIONAL WEATHER SERVICE NEW ORLEANS LA
400 AM CDT TUE SEP 02 2014

NOTE: "FAIR" INDICATES FEW OR NO CLOUDS BELOW 12,000 FEET WITH NO
      SIGNIFICANT WEATHER AND/OR OBSTRUCTIONS TO VISIBILITY.
      SKY/WX - SKY CONDITION AND SIGNIFICANT WEATHER.
      TMP - AIR TEMPERATURE.     DP    - DEWPOINT TEMPERATURE.
      RH  - RELATIVE HUMIDITY.   PRES  - PRESSURE.
      HI  - HEAT INDEX.          WCI   - WIND CHILL INDEX.

*  THESE STATIONS ARE NOT NWS OR FAA STATIONS AND ARE NOT UNDER
   NWS QUALITY CONTROL.

LAZ038-040-048-061>063-065>067-069-021000-
SOUTHEAST LOUISIANA

CITY           SKY/WX    TMP DP  RH WIND       PRES   REMARKS
N.O. AUDUBON     N/A     80  79  97 MISG        N/A
N.O. INTL ARPT PTCLDY    79  74  84 CALM      30.01R
N.O. LAKEFRONT CLEAR     79  77  94 SE3       30.02R
N.O. DOWNTOWN*   N/A     81  75  83 CALM      30.02R
SLIDELL        MOCLDY    77  75  93 N6        30.02R
BATON ROUGE    PTCLDY    75  74  96 E6        30.01R
BOOTHVILLE     CLEAR     83  77  82 S7        30.01S
BELLE CHASSE   PTCLDY    78  74  87 CALM      30.01R
BOGALUSA*        N/A     76  72  89 CALM      30.04S
GALLIANO*      NOT AVBL
NEW ROADS*       N/A     76  75  97 CALM      30.00F
GONZALES*        N/A     75  75 100 CALM      30.01R
HAMMOND*       PTCLDY    77  73  88 CALM      30.04R
HOUMA*         CLEAR     77  73  87 CALM      30.00R
PORT FOURCHON* MOSUNNY   84  75  74 S8        30.01S

$$

MSZ070-080>082-021000-
SOUTHERN MISSISSIPPI

CITY           SKY/WX    TMP DP  RH WIND       PRES   REMARKS
MCCOMB         MOCLDY    75  74  96 CALM      30.03S
GULFPORT       PTCLDY    81  76  84 NW3       30.02R
BILOXI         PTCLDY    81  76  83 SW5       30.03R
PASCAGOULA     CLEAR     74  74 100 CALM      30.03R FOG

$$

COASTAL OBSERVATIONS
LAKE AND NEARSHORE STATIONS

STATION/POSITION TIME  TEMP    WIND        PRES    WAVE
                       AIR SEA DIR/SP/G            HT/PER
                 (UTC) (F)     (DEG/KT/KT) (MB)    (FT/S)
PASCAGOULA       0900   84     200/  6/ 10 1016.0
WAVELAND YACHT   0900   82     270/  2/  2 1016.1
GRAND ISLE       0900   83 85  190/  4/  8 1016.5
SOUTHWEST PASS   0900   84 90  160/  7/  9 1016.4
NEW CANAL        0900   79 81   CALM  /  1 1016.6
SHELL BEACH      0900   81 81  160/  4/  5 1016.0

OFFSHORE STATIONS

STATION/POSITION TIME  TEMP    WIND        PRES    WAVE
                       AIR SEA DIR/SP/G            HT/PER
                 (UTC) (F)     (DEG/KT/KT) (MB)    (FT/S)

$$




USA.gov is the U.S. government's official web portal to all federal, state and local government web resources and services.